Tracking 31027 objects as of 19-Jul-2025
HD Live streaming from Space Station
objects crossing your sky now

USA 382

Track USA 382 now!
10-day predictions


NORAD ID: 60165
Int'l Code: 2024-121H
Perigee: 579.5 km
Apogee: 588.9 km
Inclination: 70.0 °
Period: 96.2 minutes
Semi major axis: 6955 km
RCS: Unknown
Launch date: June 29, 2024
Source: United States (US)
Launch site: AIR FORCE WESTERN TEST RANGE (AFWTR)
Your satellite tracking list
NUSAT-20 (GRACE)
Track 1 satellite(s)




NASA's NSSDC Master Catalog

Two Line Element Set (TLE):
1 60165U 24121H   25173.90004592 0.00000000  00000-0  00000-0 0    08
2 60165  69.9981 210.0621 0006713  61.9055 298.0944 14.96714938    05
Source of the keplerian elements: McCants